TITAN 3C TRANSTAGE DEB, 26050

Orbit data source: Space-Track

TITAN 3C TRANSTAGE DEB, 26050 is space debris in HEO originally from a launch on Tue, 21 Dec 1965 UTC launched from the Air Force Eastern Test Range (AFETR). Debris objects in space refer to the collection of defunct objects orbiting the Earth. Examples of debris include non-operational satellites, rocket bodies, and fragments generated from explosions, collisions, or faulty payload assembly.

Loading next visibility...
Identifier
26050, 1965-108AJ
Orbit
HEO
Last TLE update
4 days ago
Origin
Manufacturer
Unknown
Mission
Spacecraft
Bus & Motor
Unknown
Mass
Unknown
Launch date (UTC)
1965-12-21 (59 years ago)
Launch vehicle
Unknown
Launch site
Air Force Eastern Test Range (AFETR)
Object type
Payload
Rocket body
Debris
Shape & HBR
Unknown
Radar Cross Section
Medium (>0.1 m² and <1 m²)

Expand to show TLE details & history

TLE from 4 days ago
0 TITAN 3C TRANSTAGE DEB
1 26050U 65108AJ  25125.15331542 -.00000410  00000-0 -13375-1 0  9999
2 26050  26.6371  26.5585 6629542   4.5321 359.3458  2.69868687255201
Epoch: 2025-05-05T03:40Z
Definitive object data (Epoch: 2025-05-05T03:40:46.452Z)
Latitude
-0.00014°
Longitude
108.09299°
Altitude
959.819 km
Speed
9.505 km/s
True Right ascension
01h 46m 13s
True Declination
0° 00' 01"
Sunlit
Object was in daylight at TLE epoch
Visualization TLE readout
Latitude
13.67351°
Longitude
-102.44232°
Altitude
18,793.286 km
Speed
3.658 km/s
Apparent Right ascension
11h 02m 34s
Apparent Declination
4° 52' 31"
Sunlit
Object is in daylight
Visualization observer readout
Local Sidereal Time
15:18:58
Azimuth
256.567° W
Elevation
22.85°
Doppler factor
1
Orbital elements
Apogee altitude
29,866.836 km
Perigee altitude
967.956 km
Semi-major axis
21,795.533 km
Eccentricity
0.6629542
Inclination
26.6371°
RAAN
26.5585°
Arg. of periapsis
4.5321°
True anomaly
355.69185°
Mean anomaly
359.3458°
Eccentric anomaly
358.05975°
Mean motion
0.67452 °/min
BSTAR
-0.013375
Orbital period
533.72 mins
Loading maneuver chart data...
Loading SW <> Apogee altitude chart data...

TITAN 3C TRANSTAGE DEB Visibility forecast

Observer location: undefined°, undefined°

Span
Click to sort rows by Start time (UTC) header in descending order
Start Az.
Max El. time (UTC)
Max El. Az.
Max El.
End time (UTC)
End Az.
166 mins2025-05-09 07:10:01.269Z256.538° W2025-05-09 07:28:01.269Z253.166° W21.673°2025-05-09 09:56:01.269Z247.471° WSW
425 mins2025-05-09 23:33:01.269Z246.839° WSW2025-05-09 23:47:01.269Z174.356° S41.464°2025-05-10 06:38:01.269Z151.478° SSE
|